¥Æ¥ì¥á¥È¥ê¡¡  Æâ¡¡ÍÆ¡¡ ¡¡     ´¹»»»»ÃÍ¡¡Ã± °Ì
£³£Ã	¼§µ¤¥»¥ó¥µ¡¼£Ú¼´=	67647.0	[nT]
£³£Ä	¼§µ¤¥»¥ó¥µ£Ø¼´	=	47549.0	[nT]
£´£Á	ÂÀÍÛÅÅÃÓȯÀ¸ÅÅή=	1264.7	[mA]
£´£Â	£Â½¼ÊüÅÅÅÅή	=	-118.4	[mA]
£´£Ã	£Âü»ÒÅÅ°µ	=	15.5	[V]
£´£Ä	£ÂÃæ´Öü»ÒÅÅ°µ	=	6.9	[V]
£µ£Á	¥Ð¥¹ÅÅ°µ	=	17.3	[V]
£µ£Â	£Ê£Ô£ÁÁ÷¿®ÅÅÎÏ	=	720.9	[mW]
£µ£Ã 	¹½Âβ¹ÅÙ£±	=	15.5	[¡î]
£µ£Ä	¹½Âβ¹ÅÙ£²	=	16.2	[¡î]
£¶£Á	¹½Âβ¹ÅÙ£³	=	15.5	[¡î]
£¶£Â	¹½Âβ¹ÅÙ£´	=	15.5	[¡î]
£¶£Ã	£Â¥»¥ë²¹ÅÙ	=	17.0	[¡î]

 ==========================¡¡FO-29¡Ê¤Õ¤¸£³¹æ¡Ë¤Î¥Æ¥ì¥á¥È¥êʬÀÏ¡¢£Ñ£Ó£Ï¾ðÊóÅù¡¡=====================
   
¡¡£³)[jamsat-bb:12920]FO-29 CW telemetry¤Ë¤ª¤¤¤ÆÏÆÅÄÈþº¬É׻᤬FO-29¡¡¤Î¥Æ¥ì¥á¥È¥ê-¤Î¾Ü¤·¤¤²òÀϤò
¡¡¡¡¤µ¤ì¤Æ¤¤¤Þ¤·¤¿¤Î¤ÇžºÜ¤µ¤»¤Æ夭¤Þ¤·¤¿¡£

¡¡2003ǯ2·î3Æü¤Ë¼õ¿®¤µ¤ì¤¿±ÒÀ± FO-29 ¤Î CW¥Æ¥ì¥á¥È¥ê
¤ò¡¢¥×¥í¥°¥é¥à¡ØFo29cwt2¡Ù¤òÍѤ¤¤Æ²òÀϤ·¤Æ¤ß¤Þ¤·¤¿¡£

http://www.asahi-net.or.jp/~ei7m-wkt/numbr364.htm
http://www.ne.jp/asahi/hamradio/je9pel/fo29cwt2.zip

-------------------------------------------
Name: JE9PEL/1 ÏÆÅÄ
Mail: ei7m-wkt@asahi-net.or.jp
URL : http://www.asahi-net.or.jp/~ei7m-wkt/
QTH : Yokohama, Japan
Date: Feb 7, 2003
-------------------------------------------
 =================================================================================================
¡¡
¡¡£´¡Ë£Ê£Á£Ò£Ì ¤Î¥Û¡¼¥à¥Ú¡¼¥¸¤Ë±¿ÍÑͽÄ꤬µ­ºÜ¤µ¤ì¤Æ¤¤¤Þ¤·¤¿¤Î¤Ç¤´¾Ò²ð¤·¤Þ¤¹¡¥
       ¡Ê http://www.jarl.or.jp/Japanese/3_Fuji/new/uy.htm ¡Ë
       
¡¡¡¡¡¡¡¡¡¡¡¡¡¡¡¡¡ö¡ö¡ö¡¡±¿ÍÑͽÄê¤Ë¤Ä¤¤¤Æ¡¡¡ö¡ö¡ö

¡¡¡¡¡¡¡¡¡¡¡¡¡¡¡¡Åöʬ¤Î´Ö ¡¡¡¡¡¡¡¡¥¢¥Ê¥í¥°·Ï±¿ÍÑ

¡¡¡¡¡ö¡¡¤Ê¤ª¡¤±¿ÍÑͽÄê¤ÏÅÔ¹ç¤Ë¤è¤ê¡¤Êѹ¹¤¹¤ë¤³¤È¤¬¤¢¤ê¤Þ¤¹¤Î¡¤¤Ç¤¢¤é¤«¤¸¤á¤´Î»¾µ´ê¤¤¤Þ¤¹¡£

¡¡¾È²ñÀè¡¡¡§¡¡lab@jarl.or.jp

¡¡ºÇ¿·¤Î¾ðÊó¤Ï¥Æ¥ì¥Û¥ó¥µ¡¼¥Ó¥¹¡Ê£°£³¡Ý£³£¹£´£²¡Ý£±£°£°£°¡Ë¤ò¤ªÊ¹¤­¤¯¤À¤µ¤¤¡£¡¡¡¡
¡¡ 
¡¡¡¡¤Õ¤¸£²¹æ¡Ê£Ê£Á£Ó¡Ý£±£â¡Ë¤Î±¿ÍÑ 

¡¡£Ã£×¥Æ¥ì¥á¥È¥ê¤Îµ¡Ç½¤Ë¾ã³²¤¬È¯À¸¤·¤Æ¤¤¤Þ¤¹¡£¾ÜºÙ¤Ï¡Ö¤Õ¤¸£²¹æ¡×¤Î¸½¶·¤ò¤´Í÷¤¯¤À¤µ¤¤¡£
¡¡±¿ÍѤϥ¢¥Ê¥í¥°·Ï¤ÎϢ³±¿ÍѤȤ·¤Þ¤¹¡£ 
 ¡¡¡¡¡¡¡¡
-----------------------    £Æ£Ï¡Ý£²£°¡ÊJAS-£±£â¡ËÆ»Í×ÁÇ   -------------------------
 ¡¡
 ¡¡¢£ µ°Æ»Í×ÁÇ£± ¡§½Ðŵ¤Ï£Æ£Ï-£²£¹¡Ö¤Õ¤¸£³¹æ¡×¤ËƱ¤¸¡¥
  
FO-20
1 20480U 90013C   03035.90334722 -.00000029  00000-0  28938-5 0  4608
2 20480  99.0443   1.2180 0540880  34.8034 328.7225 12.83329030608761
 
 ¡¡¢£ µ°Æ»Í×ÁÇ£² ¡§½Ðŵ¤Ï£Æ£Ï¡Ý£²£¹¡Ö¤Õ¤¸£³¹æ¡×¤ËƱ¤¸¡¥
               
Satellite: FO-20
Catalog number: 20480
Epoch time:      03035.90334722
Element set:     460
Inclination:       99.0443 deg
RA of node:         1.2180 deg
Eccentricity:    0.0540880
Arg of perigee:    34.8034 deg
Mean anomaly:     328.7225 deg
Mean motion:   12.83329030 rev/day
Decay rate:       -2.9e-07 rev/day^2
Epoch rev:           60876
Checksum:              265

--------------------------------------------------------------------------------¡¡
¡¡        ¢£ ¤Õ¤¸£²¹æ¡¿£Æ£Ï¡Ý£²£°/JAS-1£â ¢£  ¡¡   
            
¡¡¡¡¡¡¡¡¡¡¡¡¡¡¡¡¡¡¡¡¡Ö¤Õ¤¸£²¹æ¡×¡¡¸½¶·                                                                                  
             
   JAS-1b¡Ê¤Õ¤¸£²¹æ¡Ë¤Î£Ã£×¥Æ¥ì¥á¥È¥ê¿®¹æ¤Ë¡¤£±£¹£¹£·Ç¯£±£°·î£±£²Æü£±£²»þ¡Ê£Ê£Ó£Ô¡Ë¤Î
¡¡ÆüËܾå¶õÄ̲á»þ¡¤£³·å¤Î¿ô»ú¤¬·«¤êÊÖ¤µ¤ì¤ë¤Ï¤º¤¬£³¸Ä¤ÎĹ²»¤Î·«¤êÊÖ¤·¤È¤Ê¤Ã¤Æ¤¤¤ë¤È¤¤¤¦
¡¡°Û¾ï¤¬È¯¸«¤µ¤ì¤Þ¤·¤¿¡£¤³¤ÎÉÔ¶ñ¹ç¤Ï¼¡¤ÎÄ̲á»þ¤«¤é¤Ï²óÉü¤·¤Æ¤¤¤Þ¤·¤¿¤¬£±£³Æü£±£µ»þ£²£°Ê¬¤Î
¡¡Ä̲á»þ¤ËºÆ¤Ó´Ñ¬¤µ¤ì¤Þ¤·¤¿¡£¸½ºß¤Ï£Á£°¤ÎÁ÷¿®¤¬Â³¤¤¤Æ¤¤¤Þ¤¹¡£±ÒÀ±¤Î¥¢¥Ê¥í¥°·ÏÃæ·Ñ¥â¡¼¥É
¡¡Æ°ºî¤Ï°Û¾ï¤¬Ìµ¤¯¡¤Àµ¾ï»þ¤Î¥Æ¥ì¥á¥È¥êÆâÍƤ«¤é¤Ï±ÒÀ±¤ÎÆ°ºî¤Ë°Û¾ï¤Ïǧ¤á¤é¤ì¤Þ¤»¤ó¡£½¾¤Ã¤Æ¡¤
¡¡Ä¾¤Á¤Ë±ÒÀ±¤Î¥ß¥Ã¥·¥ç¥ó¤Ë±Æ¶Á¤¹¤ë¤³¤È¤Ï̵¤¤¤ÈͽÁÛ¤µ¤ì¤Þ¤¹¤Î¤Ç¡¤ÅöÌ̤ϥ¢¥Ê¥í¥°·ÏÃæ·Ñ
¡¡¥â¡¼¥É¤ò·Ñ³¤·¤Þ¤¹¡£±ÒÀ±¤Ï´û¤ËÂǤÁ¾å¤²¤Æ¤«¤é£·Ç¯£¸¥ö·î¤ò·Ð¤Æ¤ª¤ê¤Þ¤¹¤Î¤Ç¡¤º£¸å¤Ï´Æ»ë¤ò
¡¡¶¯²½¤¹¤ëͽÄê¤Ç¤¹¡£¥¢¥Þ¥Á¥å¥¢³Æ°Ì¤Î¥ì¥Ý¡¼¥È¤ò¤ªÂÔ¤Á¤·¤Þ¤¹¡£
¡¡-------------------------------------------------------------------------------- 
¡¡¡¡1997ǯ10·î14Æü¡¡00»þ35ʬ ³Îǧ¤Î¥Æ¥ì¥á¥È¥ê²» 151 KB ¡Ê£Á£°¡Ë 
¡¡¡¡1997ǯ10·î14Æü¡¡11»þ10ʬ ³Îǧ¤Î¥Æ¥ì¥á¥È¥ê²» 216 KB ¡Ê°Û¾ï¥­¡¼¥¤¥ó¥°¡Ë 

  °Ê¾å¡¡£Ê£Á£Ò£Ì¤Î¥Û¡Ý¥à¥Ú¡¼¥¸¤Î http://www.jarl.or.jp/Japanese/3_Fuji/new/fuji.htm

===================== FO-20¡¡¤Õ¤¸£²¹æ¡¡¤Î¥Æ¥ì¥á¥È¥ê´Ñ¬·ë²Ì¡¡====================

  £±£²·î£²£°Æü¡Ê¶â¡Ë£±£³¡§£µ£¹¡ÊJST)¤Î´Ñ¬·ë²Ì¤Ç¤Ï¥Æ¥ì¥á¥È¥ê¤Ï¡¢°ÊÁ°´Ñ¬¤·¤¿Ã±°ì¼þÇÈ¿ô¤Î
Àµ¸¹ÇȤ¬¥É¥Ã¥×¥é¡¼¸ú²Ì¤Ç¼þÇÈ¿ô¤¬¤º¤ì¤Æ¤¤¤¯¤Î¤ß¤Î¾õÂ֤Ǥ·¤¿¡£
                                         
   =============   JAS-2 ¡Ê¤Õ¤¸£³¹æ¡Ë¤È¸½ºß¤Þ¤Ç¤Î¾ðÊó   ===========
  
  £Á¡¥ÅÅÏäˤè¤ë¤Õ¤¸£³¹æ¤Î±¿ÍѾðÊó
      ¼ÒÃÄË¡¿ÍÆüËÜ¥¢¥Þ¥Á¥å¥¢Ï¢ÌÁ¤Ë¤è¤ë¥µ¡¼¥Ó¥¹
           £Ô£Å£Ì ¡¥   £°£³¡Ý £³£¹£´£² ¡Ý £±£°£°£°
  £Â¡¥¥¢¥Þ¥Á¥å¥¢ÌµÀþ£Æ£Á£Ø¥µ¡¼¥Ó¥¹
      £Ê£Á£Ò£Ì¤Ë¤è¤ë¤Õ¤¸£³¹æ¤Îµ°Æ»¾ðÊó¡Ê¥ª¡¼¥Ó¥Ã¥È¥«¥ì¥ó¥À¡¼¡Ë
         £Æ£Á£Ø £Î£ï¡¥  £°£³¡Ý £³£²£³£³ ¡Ý£°£°£µ£µ
  £Ã¡¥£×£×£×¥Ö¥é¥¦¥¶¤Ç¾ðÊó¤ò´Êñ¤Ë¸«¤ì¤ë¿Í¤Î¤¿¤á¤Ë£Ê£Á£Ó-1,£Ê£Á£Ó¡¾£±£â,
¡¡¡¡¡¡£Ê£Á£Ó¡¾£²¡Ê¤Õ¤¸£±¹æ¤«¤é¤Õ¤¸£³¹æ¤Î±ÒÀ±¤È¤·¤Æ¤Î±¿ÍѤµ¤ì¤ë¤Þ¤Ç¤Î̾Á°¡Ë¤Î
¡¡¡¡¡¡³µÍס¢ÂǤÁ¾å¤²¤Þ¤Ç¤Î¾õ¶·¡¢±¿ÍÑÃæ¤Ë¤ª¤±¤ë¾õ¶·¤òÀâÌÀ¤·¤¿¥Û¡¼¥à¥Ú¡¼¥¸¤ò
¡¡¡¡¡¡¾Ò²ð¤·¤Æ¤ª¤­¤Þ¤¹¡¥

    ­¡ ¼ÒÃÄË¡¿ÍÆüËÜ¥¢¥Þ¥Á¥å¥¢ÌµÀþÏ¢ÌÁ¡Ê£Ê£Á£Ò£Ì¡Ë¤Î¥Û¡¼¥à¥Ú¡¼¥¸

         http://www.jarl.or.jp/Japanese/3_Fuji/new/fuji.htm
¡¡¡¡¡¡¡¡ http://www.jarl.or.jp/Japanese/3_Fuji/history/history.htm
 
    ­¢ ±§Ã賫ȯ»ö¶ÈÃġʣΣÁ£Ó£Ä£Á¡Ë¥Û¡¼¥à¥Ú¡¼¥¸ 

      1)¡Ö¤Õ¤¸£±¹æ¡×¡Ê£Ê£Á£Ó¡Ý£±¡§£Æ£Ï¡Ý£±£²¡Ë
         http://spaceboy.nasda.go.jp/lib/satellites/jas/j/jas_01_j.html
         http://spaceboy.nasda.go.jp/lib/satellites/jas/g/h_15_017.jpg
         http://spaceboy.nasda.go.jp/lib/satellites/jas/e/jas_01_e.html
         http://space.nasda.go.jp/db/kaihatu/eisei/eisei_j/jas_1_a_j.html#2
         http://spaceboy.nasda.go.jp/note/eisei/j/eis15h_j.html#eis15h_01_j
         http://www.nasda.go.jp/lib/nasda-news/1996/12/resai_j.html
         http://spaceboy.nasda.go.jp/lib/satellites/jas/g/h_15_007.jpg
         http://www.nasda.go.jp/press/2002/02/pb_020220_j.html

      2)¡Ö¤Õ¤¸£²¹æ¡×¡Ê£Ê£Á£Ó¡Ý£±£â¡§£Æ£Ï¡Ý£²£°¡Ë
         http://spaceboy.nasda.go.jp/lib/satellites/mos/g/h_21_018.jpg
         http://spaceboy.nasda.go.jp/lib/satellites/mos/g/h_21_019.jpg
         http://spaceboy.nasda.go.jp/note/eisei/j/eis15h_j.html#eis15h_01_j

      3)¡Ö¤Õ¤¸£³¹æ¡×¡Ê£Ê£Á£Ó¡Ý£²¡§£Æ£Ï¡Ý£²£¹¡Ë
         http://www.nasda.go.jp/lib/nasda-news/1996/09/h2_j.html
         http://www.nasda.go.jp/pr/services/presskit/h2-f4/p-h2_3_e.html
         http://space.nasda.go.jp/db/kaihatu/eisei/eisei_j/jas-2_j.html
         http://spaceboy.nasda.go.jp/note/eisei/j/eis15i_j.html#eis15i_03_j

  £Ä¡¥£Ê£Á£Í£Ó£Á£Ô¤Ë¤è¤ëµ°Æ»¾ðÊó¤Î³èÍÑ
        JAMSAT¤Î¥Û¡¼¥à¥Ú¡¼¥¸¤Þ¤¿¤Ïjamsat¡Ýkeps¤Îµ°Æ»Í×ÁǤè¤ê
      ±ÒÀ±¤Îµ°Æ»¾ðÊó¤òÆÀ¤ë¡¥
     £Ê£Á£Í£Ó£Á£Ô¥Û¡¼¥à¥Ú¡¼¥¸
               £Õ£Ò£Ì    http://www.jamsat.or.jp
       ¾åµ­¥Û¡¼¥à¥Ú¡¼¥¸¤Ç¤Ï³ÆÃϤǹԤï¤ì¤ë¥¢¥Þ¥Á¥å¥¢ÄÌ¿®±ÒÀ±¤Ë´Ø¤¹¤ë
      ¥ß¥å¡¼¥Æ¥£¥ó¥°¤Î¤ªÃΤ餻¤äÀ¤³¦¤Î¥¢¥Þ¥Á¥å¥¢±ÒÀ±¤Ë´Ø¤¹¤ë¾ðÊó¤¬
      ËþºÜ¤µ¤ì¤Æ¤¤¤Þ¤¹¡¥

¡¡========================================================================  
¡¡    £Ê£Á£Í£Ó£Á£Ô¤Î¥á¥ó¥Ð¡¼¤Î¤´¶¨ÎϤˤè¤ê£Ê£È£¶£Í£Í£Å¡Ê¹â»³ ½¨Â¤¡Ë¤¬
    ¼¹É®¡¦ÊÔ½¸¤òôÅö¤·¤Æ¤ª¤ê¤Þ¤¹¡¥¤´»ØŦ¤Î°Õ¸«¡¢µ¿Ìä¤ä¤³¤Î¤è¤¦¤Ë¤·¤¿¤é
    ¤È¤¤¤¦¥¢¥¤¥Ç¥¢¤¬¤¢¤ê¤Þ¤·¤¿¤é¾®¤µ¤Ê¤³¤È¤Ç¤â¤«¤Þ¤¤¤Þ¤»¤ó¤Î¤Çµ¤·Ú¤Ë²¼
    µ­¥¢¥É¥ì¥¹¤Þ¤Ç¤´Ï¢Íí¤¯¤À¤µ¤¤¡¥£ê£á£í£ó£á£ô¡Ý£î£å£÷£ó¤«¤é£ê£á£ó£²
    £é£î£æ£ï¤Ø¤ÎžºÜ¤ò£Ê£È£´£Ð£È£×¶Éºä°æ¤µ¤ó¤ËôÅö¤·¤Æ夤¤Æ¤ª¤ê¤Þ¤¹¡¥  
                  E-mail : jh6mme@jamsat.or.jp : jh4phw@jamsat.or.jp
 ===============================   £Å£Î£Ä  ===============================